Location: Follega
(52.8850°N, 5.7362°E)
Time: 04:06:42
(UTC+00:00)

Cosmos 2297 Rocket - Pass Details

Date: 09 October 2020
Orbit: 838 x 845 km, 71.0° (Epoch: 26 October)

Event Time Altitude Azimuth Distance (km) Brightness Sun altitude
Rises 19:03:06 0° 326° (NW) 3,417 6.1 -20.1°
Reaches altitude 10° 19:06:07 10° 341° (NNW) 2,479 5.1 -20.5°
Maximum altitude 19:10:31 22° 32° (NNE) 1,758 3.7 -21.2°
Enters shadow 19:11:39 21° 49° (NE) 1,814 3.6 -21.3°
